Dr.kaiyo — JD2325 — position and weather

sailwx.info

Track history (hours):
 
Tides and Currents Weather Stations Pressure Air Temp Water Temp Dewpoint Dewpoint Depression Visibility Wind Speed Wind Dir Waves Ship Positions

Dr.kaiyo

Last reported at 2014-Sep-02 01:33 UTC. Time now 2014-Sep-02 02:13 UTC.
Position N 34°26' E 135°00'.

Length 31 m.

Type: Other ship. MMSI: 431301823.

Date/timePositionNaut miles runAvg speedWind from/ knotsBaromVisibWave heightAir tempDewpointWater temp
2014-Sep-02 01:33N 34°26' E 135°00'1010.1
2014-Sep-02 00:33N 34°34' E 135°08'9 8.7
2014-Sep-01 23:33N 34°42' E 135°12'0 0.0
2014-Sep-01 06:33N 34°41' E 135°12'8 8.0
2014-Sep-01 05:33N 34°34' E 135°09'2 1.5
2014-Sep-01 04:34N 34°35' E 135°07'5 5.1
2014-Sep-01 03:33N 34°39' E 135°12'4 3.6
2014-Sep-01 02:34N 34°36' E 135°09'1111.2
2014-Sep-01 01:33N 34°28' E 134°60'1110.5
2014-Sep-01 00:33N 34°33' E 135°11'9 8.9
2014-Aug-31 23:33N 34°42' E 135°12'  
2014-Aug-29 05:33N 34°41' E 135°12'7 7.4
2014-Aug-29 04:33N 34°36' E 135°07'6 5.9
2014-Aug-29 03:33N 34°33' E 135°00'4 4.1
2014-Aug-29 02:33N 34°29' E 134°60'6 6.2
2014-Aug-29 01:33N 34°31' E 135°07'1110.5
2014-Aug-29 00:33N 34°41' E 135°13'0 0.0
2014-Aug-28 23:33N 34°41' E 135°13'1 0.7
2014-Aug-28 22:33N 34°41' E 135°12'0 0.0
2014-Aug-28 07:32N 34°41' E 135°12'0 0.0
2014-Aug-28 06:33N 34°41' E 135°12'0 0.2
2014-Aug-28 05:33N 34°42' E 135°12'1 0.8
2014-Aug-28 04:33N 34°41' E 135°13'1 0.8
2014-Aug-28 03:33N 34°42' E 135°12'0 0.2
2014-Aug-28 02:32N 34°41' E 135°12'0 0.0
2014-Aug-28 01:33N 34°41' E 135°12'0 0.0
2014-Aug-27 04:16N 34°41' E 135°12'0 0.0
2014-Aug-27 03:33N 34°41' E 135°12'4 4.5
2014-Aug-27 02:33N 34°38' E 135°10'2 2.1
2014-Aug-27 01:33N 34°36' E 135°08'6 6.1
2014-Aug-27 00:33N 34°41' E 135°13'0 0.0
2014-Aug-26 23:33N 34°41' E 135°13'1 0.7
2014-Aug-26 22:33N 34°41' E 135°12'0 0.0
2014-Aug-26 06:19N 34°41' E 135°12'0 0.0
2014-Aug-26 05:33N 34°41' E 135°12'5 5.3
2014-Aug-26 04:33N 34°41' E 135°19'1 1.4
2014-Aug-26 03:33N 34°40' E 135°20'1 0.5
2014-Aug-26 02:33N 34°40' E 135°20'4 3.7
2014-Aug-26 01:33N 34°41' E 135°16'3 2.8
2014-Aug-26 00:33N 34°41' E 135°13'0 0.0
2014-Aug-25 23:33N 34°41' E 135°13'1 0.7
2014-Aug-25 22:33N 34°41' E 135°12'0 0.0
2014-Aug-25 06:33N 34°41' E 135°12'0 0.0
2014-Aug-25 05:34N 34°41' E 135°12'4 4.0
2014-Aug-25 04:33N 34°38' E 135°14'2 2.3
2014-Aug-25 03:34N 34°39' E 135°12'6 5.5
2014-Aug-25 02:29N 34°41' E 135°19'1 0.7
2014-Aug-25 01:33N 34°40' E 135°18'1 1.0
2014-Aug-25 00:33N 34°40' E 135°17'4 4.4
2014-Aug-24 23:33N 34°42' E 135°13'  
Track history (hours):
 
Tides and Currents Weather Stations Pressure Air Temp Water Temp Dewpoint Dewpoint Depression Visibility Wind Speed Wind Dir Waves Ship Positions

Dr.kaiyo

Last reported at 2014-Sep-02 01:33 UTC. Time now 2014-Sep-02 02:13 UTC.
Position N 34°26' E 135°00'.

Length 31 m.

Type: Other ship. MMSI: 431301823.

Date/timePositionNaut miles runAvg speedWind from/ knotsBaromVisibWave heightAir tempDewpointWater temp
2014-Sep-02 01:33N 34°26' E 135°00'1010.1
2014-Sep-02 00:33N 34°34' E 135°08'9 8.7
2014-Sep-01 23:33N 34°42' E 135°12'0 0.0
2014-Sep-01 06:33N 34°41' E 135°12'8 8.0
2014-Sep-01 05:33N 34°34' E 135°09'2 1.5
2014-Sep-01 04:34N 34°35' E 135°07'5 5.1
2014-Sep-01 03:33N 34°39' E 135°12'4 3.6
2014-Sep-01 02:34N 34°36' E 135°09'1111.2
2014-Sep-01 01:33N 34°28' E 134°60'1110.5
2014-Sep-01 00:33N 34°33' E 135°11'9 8.9
2014-Aug-31 23:33N 34°42' E 135°12'  
2014-Aug-29 05:33N 34°41' E 135°12'7 7.4
2014-Aug-29 04:33N 34°36' E 135°07'6 5.9
2014-Aug-29 03:33N 34°33' E 135°00'4 4.1
2014-Aug-29 02:33N 34°29' E 134°60'6 6.2
2014-Aug-29 01:33N 34°31' E 135°07'1110.5
2014-Aug-29 00:33N 34°41' E 135°13'0 0.0
2014-Aug-28 23:33N 34°41' E 135°13'1 0.7
2014-Aug-28 22:33N 34°41' E 135°12'0 0.0
2014-Aug-28 07:32N 34°41' E 135°12'0 0.0
2014-Aug-28 06:33N 34°41' E 135°12'0 0.2
2014-Aug-28 05:33N 34°42' E 135°12'1 0.8
2014-Aug-28 04:33N 34°41' E 135°13'1 0.8
2014-Aug-28 03:33N 34°42' E 135°12'0 0.2
2014-Aug-28 02:32N 34°41' E 135°12'0 0.0
2014-Aug-28 01:33N 34°41' E 135°12'0 0.0
2014-Aug-27 04:16N 34°41' E 135°12'0 0.0
2014-Aug-27 03:33N 34°41' E 135°12'4 4.5
2014-Aug-27 02:33N 34°38' E 135°10'2 2.1
2014-Aug-27 01:33N 34°36' E 135°08'6 6.1
2014-Aug-27 00:33N 34°41' E 135°13'0 0.0
2014-Aug-26 23:33N 34°41' E 135°13'1 0.7
2014-Aug-26 22:33N 34°41' E 135°12'0 0.0
2014-Aug-26 06:19N 34°41' E 135°12'0 0.0
2014-Aug-26 05:33N 34°41' E 135°12'5 5.3
2014-Aug-26 04:33N 34°41' E 135°19'1 1.4
2014-Aug-26 03:33N 34°40' E 135°20'1 0.5
2014-Aug-26 02:33N 34°40' E 135°20'4 3.7
2014-Aug-26 01:33N 34°41' E 135°16'3 2.8
2014-Aug-26 00:33N 34°41' E 135°13'0 0.0
2014-Aug-25 23:33N 34°41' E 135°13'1 0.7
2014-Aug-25 22:33N 34°41' E 135°12'0 0.0
2014-Aug-25 06:33N 34°41' E 135°12'0 0.0
2014-Aug-25 05:34N 34°41' E 135°12'4 4.0
2014-Aug-25 04:33N 34°38' E 135°14'2 2.3
2014-Aug-25 03:34N 34°39' E 135°12'6 5.5
2014-Aug-25 02:29N 34°41' E 135°19'1 0.7
2014-Aug-25 01:33N 34°40' E 135°18'1 1.0
2014-Aug-25 00:33N 34°40' E 135°17'4 4.4
2014-Aug-24 23:33N 34°42' E 135°13'  

Dump ship's entire track history